HAWK-3A

Last updated on Tue Sep 22 2026 00:03:52 GMT+0000 (Coordinated Universal Time)

1 48957U 21059CG 26263.83519450 .00050272 00000+0 29569-3 0 9993 2 48957 97.6612 113.1391 0003099 342.6384 17.4775 15.78098788292898
UTC large
Height (km)
Speed (km/s)
/
Latitude / Longitude
Inclination (degrees)
Orbital Period (minutes)
Azimuth
Elevation
Range (km)
Doppler Factor

Next 0 passes for location: London (51.5072 / 0.1276)

No passes found over London.
HAWK-3A